User: anonymous   Login
Location: Unspecified
(0.0000°N, 0.0000°E)
Time: 00:14:08
(UTC+00:00)
Language:

USA-159 - Orbit

View from above orbital plane
View from above orbital plane
View from above satellite
View from above satellite

Ground track
Ground track

The orbit data is extracted from the following two-line orbital elements,

1 26880U 01033A   18291.55877954 0.00000000  00000-0  00000-0 0    05
2 26880  10.2241  34.7691 0003453 185.8184 174.1816  1.00542981    04
Epoch (UTC): 18 October 2018 13:24:38
Eccentricity: 0.0003453
inclination: 10.2241°
perigee height: 35696 km
apogee height: 35725 km
right ascension of ascending node: 34.7691°
argument of perigee: 185.8184°
revolutions per day: 1.00542981
mean anomaly at epoch: 174.1816°
orbit number at epoch: 0

The dashed part of the orbit path shows where the satellite is in the earth's shadow,  

DLR